#timestamp,LO_Frequency,Hit,StdDev 
1701363615.1,286047002.1,P
1701363616.0,286047002.1,P
1701363635.8,286047000.3,N
1701363655.7,286047000.6,N
1701363675.5,286047000.6,N
1701363695.3,286047000.4,N
1701363715.2,286047000.6,N
1701363735.0,286047001.1,N
1701363735.9,286047001.1,N
1701363755.7,286047000.4,N
1701363775.6,286047000.3,N
1701363795.4,286047000.0,N
1701363815.3,286047002.0,Y
1701363835.1,286047002.4,P
1701363855.8,286047000.1,N
1701363875.7,286046999.8,N
1701363895.5,286047001.0,N
1701363915.4,286046998.2,N
1701363935.2,286046998.7,N
1701363955.0,286046998.3,N
1701363955.9,286046998.3,N
1701363975.8,286046998.8,N
1701363995.6,286046998.5,N
1701364015.5,286046998.4,N
1701364035.3,286046999.0,N
1701364055.1,286046999.2,N
1701364075.9,286046998.9,N
1701364095.7,286047001.1,N
1701364115.6,286047000.9,N
1701364135.4,286046999.9,N
1701364155.2,286047000.2,N
1701364175.1,286046999.9,N
1701364176.0,286046999.9,N
1701364195.8,286047000.4,N
1701364215.7,286047000.0,N
1701364235.5,286047000.5,N
1701364255.3,286047001.0,N
1701364275.2,286046999.8,N
1701364295.0,286047000.9,N
1701364295.9,286047000.9,N
1701364315.8,286047000.3,N
1701364335.6,286046998.4,N
1701364355.4,286046998.7,N
1701364375.3,286046998.7,N
1701364395.1,286046998.8,N
1701364415.9,286046999.4,N
1701364435.7,286046998.7,N
1701364455.5,286046999.1,N
1701364475.4,286046999.6,N
1701364495.2,286046999.4,N
1701364515.0,286046999.3,N
1701364516.0,286046999.3,N
1701364535.8,286046999.0,N
1701364555.6,286046998.3,N
1701364575.5,286046996.5,Y
1701364595.3,286046999.3,P
1701364615.2,286046999.1,P
1701364635.0,286046997.4,P
1701364635.9,286046997.4,Y
1701364655.8,286046999.1,P
1701364675.6,286046999.6,P
1701364695.5,286046997.0,P
1701364715.3,286046995.5,Y
1701364735.1,286046997.8,P
1701364755.9,286046996.7,P
1701364775.7,286046997.5,P
1701364795.6,286046997.9,Y
1701364815.4,286046999.3,P
1701364835.2,286046999.2,N
1701364855.1,286046999.6,N
1701364856.0,286046999.6,N
1701364875.8,286046994.9,Y
1701364895.7,286046997.2,P
1701364915.5,286046997.4,N
1701364935.3,286046997.1,P
1701364955.2,286046997.2,Y
1701364975.0,286047001.0,P
1701364975.9,286047001.0,N
1701364995.8,286046998.3,N
1701365015.6,286046999.0,N
1701365035.4,286046999.3,N
1701365055.3,286046998.8,N
1701365075.1,286046996.8,N
1701365095.9,286046996.6,N
1701365115.7,286046996.5,N
1701365135.5,286046997.3,N
1701365155.4,286046997.7,N
1701365175.2,286046996.5,N
1701365195.0,286046996.6,N
1701365195.9,286046996.6,N
1701365215.8,286046997.8,N
1701365235.6,286046995.7,N
1701365255.5,286046997.3,N
1701365275.3,286046997.4,N
1701365295.1,286046995.1,Y
1701365315.9,286046996.6,P
1701365335.7,286046997.0,P
1701365355.5,286046996.7,P
1701365375.4,286046997.6,Y
1701365395.2,286047000.5,P
1701365415.1,286047001.2,N
1701365416.0,286047001.2,N
1701365435.8,286046996.5,N
1701365455.6,286046998.7,N
1701365475.5,286046998.9,N
1701365495.3,286047000.9,N
1701365515.1,286047002.5,N
1701365535.9,286047002.1,N
1701365555.7,286047002.3,N
1701365575.6,286047000.3,N
1701365595.4,286047000.3,N
1701365615.2,286046998.4,N
1701365635.1,286046998.1,N
1701365636.0,286046998.1,N
1701365655.8,286047000.2,N
1701365675.6,286047000.7,N
1701365695.5,286047000.8,N
1701365715.3,286047000.4,N
1701365735.2,286047000.3,N
1701365755.9,286046999.7,N
1701365775.7,286046999.9,N
1701365795.6,286047000.9,N
1701365815.4,286047000.8,N
1701365835.3,286046998.3,N
1701365855.1,286046998.1,N
1701365856.0,286046998.1,N
1701365875.8,286047000.9,N
1701365895.7,286047000.8,N
1701365915.5,286047001.2,N
1701365935.3,286046998.3,N
1701365955.2,286047000.7,N
1701365975.0,286046999.5,N
1701365975.9,286046999.5,N
1701365995.8,286046996.8,N
1701366015.6,286046997.3,N
1701366035.4,286046999.4,N
1701366055.3,286046999.2,N
1701366075.1,286046999.2,N
1701366095.8,286046996.8,N
1701366115.7,286046996.5,N
1701366135.5,286046997.4,N
1701366155.4,286046997.4,N
1701366175.2,286046997.8,N
1701366195.0,286046997.7,N
1701366195.9,286046997.7,N
1701366215.8,286046996.9,N
1701366235.6,286046997.2,N
1701366255.4,286046997.2,N
1701366275.3,286046997.6,N
1701366295.1,286046995.0,Y
1701366315.9,286046999.1,P
1701366335.7,286046996.9,P
1701366355.5,286046999.0,N
1701366375.4,286046998.8,N
1701366395.2,286047001.2,N
1701366415.0,286047001.0,N
1701366416.0,286047001.0,N
1701366435.8,286046999.9,N
1701366455.6,286047000.8,N
1701366475.5,286047000.8,N
1701366495.3,286047000.0,N
1701366515.1,286046999.7,N
1701366535.9,286046999.9,N
1701366555.7,286046999.7,N
1701366575.5,286047000.0,N
1701366595.4,286046998.8,N
1701366615.2,286047000.7,N
1701366635.1,286046998.3,N
1701366636.0,286046998.3,N
1701366655.8,286047001.2,N
1701366675.6,286046998.1,N
1701366695.5,286046998.5,N
1701366715.3,286046998.1,N
1701366735.2,286047000.8,N
1701366755.9,286047000.5,N
1701366775.7,286047000.6,N
1701366795.6,286047000.7,N
1701366815.4,286047000.8,N
1701366835.2,286046999.6,N
1701366855.1,286046998.3,N
1701366856.0,286046998.3,N
1701366875.8,286047000.8,N
1701366895.7,286047000.2,N
1701366915.5,286047000.2,N
1701366935.3,286047000.4,N
1701366955.2,286047002.3,N
1701366975.9,286047002.7,N
1701366995.7,286047004.3,Y
1701367015.6,286047003.1,P
1701367035.4,286047004.2,N
1701367055.3,286047001.7,N
1701367075.1,286047003.3,N
1701367076.0,286047003.3,N
1701367095.8,286047006.0,Y
1701367115.7,286047002.7,P
1701367135.5,286047001.5,P
1701367155.3,286047001.8,P
1701367175.2,286047002.5,Y
1701367195.0,286047000.5,P
1701367195.9,286047000.5,N
